When you browse on this site, cookies collect data to enhance your experience and personalize the content and advertising you see.
Visit our Privacy Policy to learn more. By continuing to use the site, you agree to this use of cookies and data.

Hourly Weather Stayki (Timonovo)

Today, 16 July, Thursday

Time Temperature Precipitation Wind Pressure Humidity
00:00 +11°C° 0 mm 4 mps 742 mmHg 88%
01:00 +11°C° 0 mm 4 mps 742 mmHg 86%
02:00 +11°C° 0 mm 4 mps 742 mmHg 86%
03:00 +11°C° 0 mm 4 mps 742 mmHg 87%
04:00 +11°C° 0 mm 4 mps 742 mmHg 88%
05:00 +11°C° 0 mm 4 mps 742 mmHg 89%
06:00 +12°C° 0 mm 4 mps 742 mmHg 88%
07:00 +12°C° 0 mm 3 mps 742 mmHg 86%
08:00 +13°C° 0 mm 3 mps 742 mmHg 85%
09:00 +14°C° 0 mm 3 mps 743 mmHg 80%
10:00 +15°C° 0 mm 4 mps 743 mmHg 75%
11:00 +18°C° 0 mm 4 mps 743 mmHg 70%
12:00 +19°C° 0 mm 4 mps 743 mmHg 68%
13:00 +19°C° 0 mm 4 mps 743 mmHg 66%
14:00 +20°C° 0 mm 4 mps 743 mmHg 64%
15:00 +20°C° 0 mm 3 mps 743 mmHg 67%
16:00 +20°C° 0 mm 3 mps 743 mmHg 70%
17:00 +20°C° 0 mm 2 mps 743 mmHg 72%
18:00 +18°C° 0 mm 2 mps 743 mmHg 76%
19:00 +18°C° 0 mm 1 mps 743 mmHg 80%
20:00 +15°C° 0 mm 1 mps 743 mmHg 84%
21:00 +15°C° 0 mm 1 mps 743 mmHg 84%
22:00 +14°C° 0 mm 1 mps 743 mmHg 85%
23:00 +14°C° 0 mm 1 mps 743 mmHg 85%

Tomorrow, 17 July, Friday

Time Temperature Precipitation Wind Pressure Humidity
00:00 +13°C° 0 mm 1 mps 744 mmHg 85%
01:00 +13°C° 0 mm 1 mps 744 mmHg 86%
02:00 +13°C° 0 mm 1 mps 744 mmHg 86%
03:00 +13°C° 0 mm 1 mps 744 mmHg 87%
04:00 +13°C° 0 mm 1 mps 744 mmHg 87%
05:00 +13°C° 0 mm 1 mps 744 mmHg 87%
06:00 +15°C° 0 mm 1 mps 744 mmHg 83%
07:00 +18°C° 0 mm 1 mps 745 mmHg 78%
08:00 +20°C° 0 mm 1 mps 745 mmHg 73%
09:00 +21°C° 0 mm 1 mps 745 mmHg 70%
10:00 +22°C° 0 mm 1 mps 745 mmHg 66%
11:00 +23°C° 0 mm 1 mps 745 mmHg 63%
12:00 +23°C° 0 mm 2 mps 745 mmHg 62%
13:00 +24°C° 0 mm 2 mps 745 mmHg 62%
14:00 +24°C° 0 mm 2 mps 745 mmHg 61%
15:00 +24°C° 0 mm 2 mps 745 mmHg 63%
16:00 +24°C° 0 mm 2 mps 745 mmHg 65%
17:00 +23°C° 0 mm 2 mps 745 mmHg 68%
18:00 +21°C° 0 mm 2 mps 746 mmHg 74%
19:00 +19°C° 0 mm 2 mps 746 mmHg 80%
20:00 +17°C° 0 mm 2 mps 746 mmHg 87%
21:00 +18°C° 0 mm 1 mps 746 mmHg 88%
22:00 +16°C° 0 mm 1 mps 746 mmHg 89%
23:00 +15°C° 0 mm 1 mps 747 mmHg 90%

Day after tomorrow, 18 July, Saturday

Time Temperature Precipitation Wind Pressure Humidity
00:00 +15°C° 0 mm 1 mps 747 mmHg 90%
01:00 +14°C° 0 mm 1 mps 747 mmHg 91%
02:00 +14°C° 0 mm 1 mps 747 mmHg 91%
03:00 +14°C° 0 mm 1 mps 747 mmHg 91%
04:00 +14°C° 0 mm 1 mps 747 mmHg 90%
05:00 +14°C° 0 mm 1 mps 747 mmHg 90%
06:00 +16°C° 0 mm 1 mps 748 mmHg 85%
07:00 +19°C° 0 mm 1 mps 748 mmHg 80%
08:00 +19°C° 0 mm 2 mps 748 mmHg 76%
09:00 +20°C° 0 mm 2 mps 748 mmHg 71%
10:00 +21°C° 0 mm 2 mps 748 mmHg 66%
11:00 +23°C° 0 mm 2 mps 748 mmHg 61%
12:00 +24°C° 0 mm 2 mps 748 mmHg 59%
13:00 +24°C° 0 mm 2 mps 748 mmHg 58%
14:00 +25°C° 0 mm 2 mps 748 mmHg 56%
15:00 +24°C° 0 mm 2 mps 748 mmHg 59%
16:00 +24°C° 0 mm 2 mps 747 mmHg 63%
17:00 +24°C° 0 mm 2 mps 747 mmHg 66%
18:00 +21°C° 0 mm 2 mps 747 mmHg 72%
19:00 +20°C° 0 mm 1 mps 747 mmHg 79%
20:00 +18°C° 0 mm 1 mps 747 mmHg 85%
21:00 +18°C° 0 mm 1 mps 748 mmHg 86%
22:00 +16°C° 0 mm 1 mps 748 mmHg 87%
23:00 +14°C° 0 mm 0 mps 748 mmHg 88%

19 July, Sunday

Time Temperature Precipitation Wind Pressure Humidity
00:00 +14°C° 0 mm 0 mps 748 mmHg 89%
01:00 +15°C° 0 mm 1 mps 748 mmHg 89%
02:00 +14°C° 0 mm 1 mps 748 mmHg 89%
03:00 +14°C° 0 mm 1 mps 748 mmHg 89%
04:00 +14°C° 0 mm 1 mps 748 mmHg 89%
05:00 +14°C° 0 mm 1 mps 748 mmHg 89%
06:00 +16°C° 0 mm 1 mps 748 mmHg 83%
07:00 +19°C° 0 mm 1 mps 748 mmHg 78%
08:00 +21°C° 0 mm 1 mps 748 mmHg 72%
09:00 +22°C° 0 mm 1 mps 748 mmHg 67%
10:00 +23°C° 0 mm 1 mps 748 mmHg 61%
11:00 +25°C° 0 mm 1 mps 748 mmHg 55%
12:00 +25°C° 0 mm 1 mps 747 mmHg 53%
13:00 +25°C° 0 mm 1 mps 747 mmHg 51%
14:00 +25°C° 0 mm 1 mps 747 mmHg 49%
15:00 +25°C° 0 mm 1 mps 747 mmHg 53%
16:00 +25°C° 0 mm 1 mps 746 mmHg 56%
17:00 +25°C° 0 mm 1 mps 746 mmHg 59%
18:00 +23°C° 0 mm 1 mps 746 mmHg 64%
19:00 +21°C° 0 mm 1 mps 746 mmHg 70%
20:00 +19°C° 0 mm 1 mps 746 mmHg 75%
21:00 +18°C° 0 mm 1 mps 746 mmHg 77%
22:00 +16°C° 0 mm 1 mps 746 mmHg 80%
23:00 +16°C° 0 mm 1 mps 746 mmHg 83%

20 July, Monday

Time Temperature Precipitation Wind Pressure Humidity
00:00 +14°C° 0 mm 0 mps 746 mmHg 83%
01:00 +14°C° 0 mm 0 mps 746 mmHg 84%
02:00 +14°C° 0 mm 0 mps 746 mmHg 84%
03:00 +14°C° 0 mm 0 mps 746 mmHg 84%
04:00 +14°C° 0 mm 0 mps 746 mmHg 84%
05:00 +14°C° 0 mm 0 mps 746 mmHg 83%
06:00 +16°C° 0 mm 0 mps 746 mmHg 79%
07:00 +18°C° 0 mm 0 mps 746 mmHg 74%
08:00 +20°C° 0 mm 0 mps 746 mmHg 69%
09:00 +21°C° 0 mm 0 mps 746 mmHg 65%
10:00 +24°C° 0 mm 1 mps 745 mmHg 61%
11:00 +25°C° 0 mm 1 mps 745 mmHg 57%
12:00 +26°C° 0 mm 1 mps 745 mmHg 55%
13:00 +26°C° 0 mm 1 mps 745 mmHg 54%
14:00 +27°C° 0 mm 1 mps 744 mmHg 52%
15:00 +26°C° 0 mm 1 mps 744 mmHg 55%
16:00 +26°C° 0 mm 1 mps 744 mmHg 58%
17:00 +26°C° 0 mm 1 mps 744 mmHg 61%
18:00 +24°C° 0 mm 1 mps 743 mmHg 67%
19:00 +22°C° 0 mm 1 mps 743 mmHg 73%
20:00 +18°C° 0 mm 0 mps 743 mmHg 79%
21:00 +17°C° 0 mm 0 mps 743 mmHg 81%
22:00 +17°C° 0 mm 0 mps 743 mmHg 82%
23:00 +16°C° 0 mm 0 mps 743 mmHg 84%

21 July, Tuesday

Time Temperature Precipitation Wind Pressure Humidity
00:00 +16°C° 0 mm 0 mps 743 mmHg 85%
01:00 +15°C° 0 mm 0 mps 742 mmHg 86%
02:00 +16°C° 0 mm 1 mps 742 mmHg 86%
03:00 +16°C° 0 mm 1 mps 742 mmHg 86%
04:00 +16°C° 0 mm 1 mps 742 mmHg 86%
05:00 +16°C° 0 mm 1 mps 742 mmHg 87%
06:00 +19°C° 0 mm 1 mps 742 mmHg 82%
07:00 +21°C° 0 mm 1 mps 742 mmHg 77%
08:00 +23°C° 0 mm 1 mps 742 mmHg 72%
09:00 +24°C° 0 mm 2 mps 741 mmHg 69%
10:00 +25°C° 0 mm 2 mps 741 mmHg 65%
11:00 +26°C° 0 mm 3 mps 741 mmHg 62%
12:00 +26°C° 0.5 mm 3 mps 741 mmHg 67%
13:00 +25°C° 0.5 mm 3 mps 740 mmHg 71%
14:00 +25°C° 0.5 mm 4 mps 740 mmHg 75%
15:00 +24°C° 0.5 mm 3 mps 740 mmHg 80%
16:00 +22°C° 0.5 mm 3 mps 739 mmHg 85%
17:00 +21°C° 0.5 mm 3 mps 739 mmHg 90%
18:00 +20°C° 0.4 mm 3 mps 739 mmHg 91%
19:00 +20°C° 0.4 mm 3 mps 739 mmHg 92%
20:00 +19°C° 0.4 mm 3 mps 739 mmHg 93%
21:00 +19°C° 0.2 mm 4 mps 739 mmHg 94%
22:00 +18°C° 0.2 mm 4 mps 739 mmHg 94%
23:00 +17°C° 0.2 mm 5 mps 740 mmHg 95%
Show more